Hot Springs, VA

1:03 PM EDT on September 15, 2019 (GMT -0400)
Ingalls

Weather History for KHSP - August, 2019

Change the Weather History Date:

Monday, August 19, 2019

  Actual Average Record
Temperature  
Mean Temperature 76 °F -  
Max Temperature 82 °F 74 °F 82 °F (2007)
Min Temperature 69 °F 59 °F 10 °F (2013)
Cooling Degree Days 10    
Growing Degree Days 26 (Base 50)    
Moisture  
Dew Point 66 °F    
Average Humidity 75    
Maximum Humidity 88    
Minimum Humidity 58    
Precipitation  
Precipitation 0.00 in - - ()
Sea Level Pressure  
Sea Level Pressure 30.23 in    
Wind  
Wind Speed 6 mph (West)    
Max Wind Speed 12 mph    
Max Gust Speed 16 mph    
Visibility 10 miles    
Events      
Averages and records for this station are not official NWS values.
T = Trace of Precipitation, MM = Missing Value Source: NWS Daily Summary

Daily Weather History Graph

Daily Weather History Graph

Search for Another Location

Airport or City:

Astronomy

Aug. 19, 2019 Rise Set
Actual Time 6:37 AM EDT 8:07 PM EDT
Civil Twilight 6:10 AM EDT 8:35 PM EDT
Nautical Twilight 5:36 AM EDT 9:08 PM EDT
Astronomical Twilight 5:01 AM EDT 9:43 PM EDT
Moon 10:31 PM EDT (8/19) 10:14 AM EDT (8/19)
Length of Visible Light 14h 25m
Length of Day
13h 29m
Waning Gibbous, 85% of the Moon is Illuminated
Aug 19
Waning Gibbous
Aug 23
Last Quarter
Aug 30
New
Sep 5
First Quarter
Sep 14
Full

Hourly Weather History & Observations

Time (EDT) Temp. Heat Index Dew Point Humidity Pressure Visibility Wind Dir Wind Speed Gust Speed Precip Events Conditions
12:14 AM 71.6 °F - 66.2 °F 83% 30.20 in 10.0 mi SW 8.1 mph - N/A   Clear
12:35 AM 71.6 °F - 66.2 °F 83% 30.20 in 10.0 mi Calm Calm - N/A   Clear
12:53 AM 71.6 °F - 66.2 °F 83% 30.20 in 10.0 mi SW 8.1 mph - N/A   Clear
1:13 AM 71.6 °F - 66.2 °F 83% 30.19 in 10.0 mi SW 9.2 mph - N/A   Clear
1:36 AM 69.8 °F - 66.2 °F 88% 30.19 in 10.0 mi SW 9.2 mph - N/A   Clear
1:53 AM 69.8 °F - 66.2 °F 88% 30.20 in 10.0 mi SW 10.4 mph - N/A   Clear
2:13 AM 69.8 °F - 64.4 °F 83% 30.19 in 10.0 mi SW 9.2 mph - N/A   Clear
2:33 AM 69.8 °F - 64.4 °F 83% 30.19 in 10.0 mi WSW 9.2 mph - N/A   Clear
2:54 AM 69.8 °F - 64.4 °F 83% 30.19 in 10.0 mi WSW 10.4 mph - N/A   Clear
3:13 AM 69.8 °F - 64.4 °F 83% 30.19 in 10.0 mi West 8.1 mph - N/A   Clear
3:33 AM 69.8 °F - 66.2 °F 88% 30.19 in 10.0 mi West 9.2 mph - N/A   Clear
3:53 AM 69.8 °F - 66.2 °F 88% 30.19 in 10.0 mi West 10.4 mph - N/A   Clear
4:13 AM 69.8 °F - 66.2 °F 88% 30.19 in 10.0 mi West 8.1 mph - N/A   Clear
4:35 AM 69.8 °F - 66.2 °F 88% 30.19 in 10.0 mi West 10.4 mph - N/A   Clear
4:53 AM 69.8 °F - 66.2 °F 88% 30.19 in 10.0 mi West 9.2 mph - N/A   Clear
5:13 AM 69.8 °F - 64.4 °F 83% 30.19 in 10.0 mi West 9.2 mph - N/A   Clear
5:35 AM 69.8 °F - 64.4 °F 83% 30.19 in 10.0 mi West 9.2 mph - N/A   Clear
5:55 AM 69.8 °F - 64.4 °F 83% 30.19 in 10.0 mi West 9.2 mph - N/A   Clear
6:13 AM 69.8 °F - 64.4 °F 83% 30.20 in 10.0 mi West 9.2 mph - N/A   Clear
6:33 AM 69.8 °F - 64.4 °F 83% 30.21 in 10.0 mi West 9.2 mph - N/A   Clear
6:55 AM 69.8 °F - 64.4 °F 83% 30.21 in 10.0 mi West 10.4 mph - N/A   Clear
7:14 AM 69.8 °F - 64.4 °F 83% 30.21 in 10.0 mi West 10.4 mph - N/A   Clear
7:33 AM 69.8 °F - 64.4 °F 83% 30.22 in 10.0 mi West 8.1 mph - N/A   Clear
7:55 AM 69.8 °F - 64.4 °F 83% 30.23 in 10.0 mi West 9.2 mph - N/A   Clear
8:16 AM 69.8 °F - 64.4 °F 83% 30.23 in 10.0 mi West 10.4 mph - N/A   Clear
8:33 AM 69.8 °F - 64.4 °F 83% 30.23 in 10.0 mi West 9.2 mph - N/A   Clear
8:54 AM 71.6 °F - 64.4 °F 78% 30.23 in 10.0 mi West 9.2 mph - N/A   Clear
9:13 AM 71.6 °F - 66.2 °F 83% 30.24 in 10.0 mi West 9.2 mph - N/A   Clear
9:35 AM 71.6 °F - 66.2 °F 83% 30.24 in 10.0 mi West 8.1 mph - N/A   Clear
9:55 AM 73.4 °F - 66.2 °F 78% 30.24 in 10.0 mi West 6.9 mph - N/A   Clear
10:16 AM 73.4 °F - 66.2 °F 78% 30.25 in 10.0 mi WNW 6.9 mph - N/A   Clear
10:34 AM 75.2 °F - 66.2 °F 73% 30.25 in 10.0 mi WNW 9.2 mph 16.1 mph N/A   Clear
10:54 AM 75.2 °F - 66.2 °F 73% 30.26 in 10.0 mi West 11.5 mph - N/A   Clear
11:14 AM 75.2 °F - 68.0 °F 78% 30.26 in 10.0 mi West 9.2 mph - N/A   Clear
11:35 AM 75.2 °F - 69.8 °F 83% 30.26 in 10.0 mi Calm Calm - N/A   Clear
11:54 AM 75.2 °F - 68.0 °F 78% 30.26 in 10.0 mi Calm Calm - N/A   Clear
12:15 PM 78.8 °F - 68.0 °F 69% 30.26 in 10.0 mi NW 6.9 mph - N/A   Clear
12:35 PM 78.8 °F - 68.0 °F 69% 30.26 in 10.0 mi Calm Calm - N/A   Clear
12:53 PM 78.8 °F - 68.0 °F 69% 30.26 in 10.0 mi WSW 5.8 mph - N/A   Scattered Clouds
1:14 PM 78.8 °F - 68.0 °F 69% 30.26 in 10.0 mi Calm Calm - N/A   Scattered Clouds
1:35 PM 78.8 °F - 68.0 °F 69% 30.26 in 10.0 mi Calm Calm - N/A   Mostly Cloudy
1:54 PM 80.6 °F 83.2 °F 68.0 °F 65% 30.26 in 10.0 mi West 4.6 mph - N/A   Scattered Clouds
2:14 PM 82.4 °F 84.6 °F 66.2 °F 58% 30.26 in 10.0 mi Calm Calm - N/A   Clear
2:34 PM 80.6 °F 82.7 °F 66.2 °F 61% 30.26 in 10.0 mi West 6.9 mph - N/A   Clear
2:54 PM 80.6 °F 82.7 °F 66.2 °F 61% 30.25 in 10.0 mi West 9.2 mph - N/A   Scattered Clouds
3:17 PM 80.6 °F 82.7 °F 66.2 °F 61% 30.24 in 10.0 mi West 3.5 mph - N/A   Clear
3:33 PM 80.6 °F 82.3 °F 64.4 °F 58% 30.24 in 10.0 mi NW 4.6 mph - N/A   Mostly Cloudy
3:53 PM 80.6 °F 82.7 °F 66.2 °F 61% 30.23 in 10.0 mi WNW 8.1 mph - N/A   Mostly Cloudy
4:15 PM 80.6 °F 82.7 °F 66.2 °F 61% 30.23 in 10.0 mi Calm Calm - N/A   Scattered Clouds
4:35 PM 78.8 °F - 64.4 °F 61% 30.23 in 10.0 mi Calm Calm - N/A   Scattered Clouds
4:53 PM 78.8 °F - 66.2 °F 65% 30.22 in 10.0 mi Calm Calm - N/A   Clear
5:14 PM 80.6 °F 82.3 °F 64.4 °F 58% 30.22 in 10.0 mi Calm Calm - N/A   Clear
5:34 PM 78.8 °F - 64.4 °F 61% 30.22 in 10.0 mi Calm Calm - N/A   Clear
5:54 PM 80.6 °F 82.7 °F 66.2 °F 61% 30.22 in 10.0 mi NW 5.8 mph - N/A   Clear
6:14 PM 78.8 °F - 66.2 °F 65% 30.22 in 10.0 mi WNW 5.8 mph - N/A   Clear
6:33 PM 78.8 °F - 66.2 °F 65% 30.22 in 10.0 mi Calm Calm - N/A   Clear
6:56 PM 77.0 °F - 66.2 °F 69% 30.22 in 10.0 mi Calm Calm - N/A   Clear
7:14 PM 75.2 °F - 66.2 °F 73% 30.23 in 10.0 mi Calm Calm - N/A   Clear
7:34 PM 75.2 °F - 66.2 °F 73% 30.23 in 10.0 mi Calm Calm - N/A   Clear
7:54 PM 75.2 °F - 64.4 °F 69% 30.23 in 10.0 mi Calm Calm - N/A   Clear
8:14 PM 75.2 °F - 64.4 °F 69% 30.24 in 10.0 mi Calm Calm - N/A   Clear
8:34 PM 75.2 °F - 64.4 °F 69% 30.24 in 10.0 mi Calm Calm - N/A   Clear
8:53 PM 73.4 °F - 64.4 °F 73% 30.25 in 10.0 mi Calm Calm - N/A   Clear
9:14 PM 73.4 °F - 64.4 °F 73% 30.26 in 10.0 mi Calm Calm - N/A   Clear
9:35 PM 73.4 °F - 64.4 °F 73% 30.26 in 10.0 mi Calm Calm - N/A   Clear
9:54 PM 73.4 °F - 64.4 °F 73% 30.27 in 10.0 mi Calm Calm - N/A   Clear
10:14 PM 73.4 °F - 64.4 °F 73% 30.27 in 10.0 mi Calm Calm - N/A   Clear
10:35 PM 73.4 °F - 64.4 °F 73% 30.28 in 10.0 mi Calm Calm - N/A   Clear
10:53 PM 73.4 °F - 64.4 °F 73% 30.28 in 10.0 mi Calm Calm - N/A   Clear
11:13 PM 71.6 °F - 66.2 °F 83% 30.28 in 10.0 mi Calm Calm - N/A   Clear
11:34 PM 71.6 °F - 66.2 °F 83% 30.28 in 10.0 mi Calm Calm - N/A   Scattered Clouds
11:54 PM 71.6 °F - 66.2 °F 83% 30.28 in 10.0 mi Calm Calm - N/A   Scattered Clouds